Regional Weather Roundup
Issued by NWS State College, PA

Home | Current Version | Previous Version | Text Only | Print | Product List | Glossary Off
Versions: 1 2 3 4 5 6 7 8 9 10 11 12 13 14 15 16 17 18 19 20 21 22 23 24 25 26 27 28 29 30 31 32 33 34 35 36 37 38 39 40 41 42 43 44 45 46 47 48 49 50

599
ASUS41 KCTP 301303
RWRCTP

REGIONAL WEATHER ROUNDUP
NATIONAL WEATHER SERVICE STATE COLLEGE PA
900 AM EDT SAT JUL 30 2016

Note: "fair" indicates few or no clouds below 12,000 feet with no
significant weather and/or obstructions to visibility.

* = STATION THAT DOES NOT REPORT PRECIPITATION /E.G. RAIN...SNOW...ETC/
    THUNDER OR FOG.

PAZ002>004-007>009-013>016-020>023-029>032-301400-
WESTERN PENNSYLVANIA

CITY           SKY/WX    TMP DP  RH WIND       PRES   REMARKS
ERIE           CLOUDY    69  65  86 SE9       29.97S
MEADVILLE      CLOUDY    65  63  93 E7        30.01R
FRANKLIN*      CLOUDY    64  63  94 NE5       30.02S
NEW CASTLE     HVY RAIN  69  68  96 NE7       29.98S FOG
BEAVER COUNTY  LGT RAIN  70  68  94 CALM      29.98
BUTLER*        CLOUDY    68  64  88 NE6       30.00F
PITTSBURGH INT LGT RAIN  70  67  90 S3        29.97S FOG
PITTSBURGH     TSTM      70  67  90 S3        29.98R
INDIANA*       CLOUDY    72  66  83 VRB3      30.03R
LATROBE        CLOUDY    72  70  94 VRB6      29.98S
WASHINGTON CO* CLOUDY    68  64  88 E5        29.99R
$$

PAZ004>006-010>012-017>019-024>028-033>037-041-042-045-046-049>053-301400-
CENTRAL PENNSYLVANIA

CITY           SKY/WX    TMP DP  RH WIND       PRES   REMARKS
BRADFORD       CLOUDY    65  58  78 E5        30.05R
DUBOIS         CLOUDY    68  61  78 E5        30.01R
CLEARFIELD     CLOUDY    66  61  84 NE6       30.03R
JOHNSTOWN      CLOUDY    68  62  81 E5        30.03S
ALTOONA        LGT RAIN  67  67 100 CALM      30.03R FOG
STATE COLLEGE  MOSUNNY   68  64  88 CALM      30.01S
WILLIAMSPORT   CLOUDY    73  61  65 CALM      29.99S
SELINSGROVE    PTSUNNY   76  70  82 CALM      30.00S
FT INDIANTOWN  MOSUNNY   73  69  87 VRB3      30.00S
CAPITAL CITY   SUNNY     78  69  73 E6        29.98S
HARRISBURG     CLOUDY    78  73  84 SE3       29.98R
YORK           CLOUDY    76  72  87 E3        29.99R FOG
$$

PAZ038>040-043-044-047-048-054-055-060>062-067>071-301400-
EASTERN PENNSYLVANIA

CITY           SKY/WX    TMP DP  RH WIND       PRES   REMARKS
SCRANTON       SUNNY     77  64  64 NE6       30.02R
MOUNT POCONO   CLOUDY    68  63  84 E7        30.07R
ALLENTOWN      CLOUDY    78  69  73 E8        30.01R
QUAKERTOWN*    CLOUDY    75  72  88 CALM      30.02S
READING        MOSUNNY   76  71  85 S5        29.99S
LANCASTER      CLOUDY    74  73  97 SE7       30.00R FOG
COATESVILLE    FOG       73  73 100 SE3       30.03S VSB 3/4
POTTSTOWN      PTSUNNY   77  72  84 VRB3      30.02S
BLUE BELL      PTSUNNY   77  72  83 CALM      30.00S
DOYLESTOWN     CLOUDY    75  74  96 VRB3      30.01R
WILLOW GROVE   NOT AVBL
NORTH PHILA    PTSUNNY   81  75  82 CALM      30.01S
PHILADELPHIA   PTSUNNY   79  73  82 S6        30.00S
$$




USA.gov is the U.S. government's official web portal to all federal, state and local government web resources and services.